PROFILE

 METAR AND TAF INFORMATION
ADDS - METARS form results

(0549 UTC 21 September 2018)
http://aviationweather.gov/metar/data/
 
CYHM 210500Z 05005KT 15SM FEW048 FEW130 FEW250 16/16 A2998 RMK SC1AC1CI1 SC TR SLP153 DENSITY ALT 1100FT
TAF CYHM 210538Z 2106/2206 06008KT P6SM SCT030 BKN100 TEMPO 2106/2110 BKN020 BECMG 2108/2110 20015KT FM211300 21020G30KT P6SM SCT100 FM211900 24025G35KT P6SM SCT030 TEMPO 2121/2124 6SM -SHRA BR OVC020 PROB30 2121/2124 VRB30G45KT 1SM +TSRA BR BKN008 OVC030CB FM220000 26015G25KT P6SM SCT050 FM220400 30010KT P6SM FEW030 RMK NXT FCST BY 211200Z 

 AIRPORT MAP

 RUNWAY INFORMATION
Runway 06 Runway length 6000 ft Runway width 150 ft
Runway elevation 771 ft Runway displaced threshold 0 ft Runway heading 49
Runway 24 Runway length 6000 ft Runway width 150 ft
Runway elevation 755 ft Runway displaced threshold 0 ft Runway heading 229
Runway 12 Runway length 10000 ft Runway width 200 ft
Runway elevation 776 ft Runway displaced threshold 1600 ft Runway heading 108
Runway 30 Runway length 10000 ft Runway width 200 ft
Runway elevation 767 ft Runway displaced threshold 400 ft Runway heading 288

 AIRPORT FREQUENCIES
Type A/D Name TORONTO TR Frequency 119.7 MHZ
Type ATIS Name ATIS Frequency 128.1 MHZ
Type GND Name GND Frequency 121.6 MHZ
Type TWR Name TWR Frequency 125 MHZ

 AIRPORT NEAR NAVIGATION AIDS
Type NDB Name Hamilton Frequency 221 KHZ
Type NDB Name Ancaster Frequency 397 KHZ
Type NDB Name Binbrook Frequency 266 KHZ